sat.trackr.live / text

‹ back to catalog

SENTINEL-6A

NORAD 46984 · 2020-086A

PAYLOAD ACTIVE UNKNOWN

§ Identity

Operator
Country
ESA
Launch date
2020-11-21
Launch site
AFWTR
Launch vehicle
Mass (kg)
RCS (m²)

Purposes: earth_obs

External: N2YO · Heavens-Above · Gunter

§ Orbital elements

Epoch: 2026-05-25T03:08:51.747936Z

Period
112.42 min
Inclination
66.0392°
Eccentricity
0.0007933
Mean motion
12.80929180 rev/d
Perigee alt
1,331.6 km
Apogee alt
1,343.9 km
Semi-major
7,715.9 km
B*
1.0090e-4
RAAN
182.9407°
Arg perigee
270.2557°
Mean anomaly
89.7549°
Rev number
25,737

§ Raw data

SENTINEL-6A1 46984U 20086A   26145.13115449 -.00000038  00000+0  10090-3 0  99972 46984  66.0392 182.9407 0007933 270.2557  89.7549 12.80929180257376

JSON: /api/v1/satellites/46984 · /tle

For live sub-satellite position, see the globe view (requires WebGL).

§ Visibility from observer

Set your observer location to see the next 7 days of passes ≥ 10°. The values pass through the URL so the page stays shareable.

No JS? Fill the form by hand. The geolocation button needs JavaScript.

§ Radio — SatNOGS DB

ModeDescriptionDownlinkUplink
BPSK S-Band transmitter 2.257 GHz
FM X-Band dumps (Norway, Sweden) 8.090 GHz

2 transmitters · refreshed weekly from db.satnogs.org